Location: Newark
(25.6667°N, 138.4167°E)
Time: 07:42:39
(UTC+00:00)

N. Korean satellite - Pass Details

Date: 24 September 2019
Orbit: 455 x 508 km, 97.2° (Epoch: 20 October)

Event Time Altitude Azimuth Distance (km) Brightness Sun altitude
Rises 09:04:52 0° 211° (SSW) 2,551 10.6 -6.1°
Reaches altitude 10° 09:08:28 10° 249° (WSW) 1,660 10.5 -6.9°
Maximum altitude 09:09:24 11° 264° (W) 1,607 10.9 -7.1°
Drops below altitude 10° 09:10:20 10° 280° (W) 1,654 11.0 -7.3°
Sets 09:13:54 0° 319° (NW) 2,521 10.9 -8.2°
